This demonstration page uses our WeatherBlox Daily Observations layout. Learn more.

Left ArrowRight Arrow

38.20091, -84.87328

Hourly Observations for August 13, 2022

Temp ( °F °C ) Dew Point ( °F °C ) Humidity (%) Winds ( mph kmh ) Pressure ( in mb ) Visibility ( mi km ) Precip ( " mm )
12:54 am 00:54 Clear 63 17.2 57 13.9 81 81 Calm 30.14 1021 10 16 0.00 0.00
1:54 am 01:54 Clear 61 16.1 56 13.3 83 83 NE 7 11 30.13 1020 10 16 0.00 0.00
2:54 am 02:54 Clear 60 15.6 56 13.3 86 86 Calm 30.13 1020 10 16 0.00 0.00
3:54 am 03:54 Clear 60 15.6 55 12.8 83 83 NE 6 9 30.12 1020 10 16 0.00 0.00
4:54 am 04:54 Clear 59 15 55 12.8 87 87 Calm 30.13 1020 10 16 0.00 0.00
5:54 am 05:54 Clear 59 15 55 12.8 87 87 NE 3 6 30.13 1020 10 16 0.00 0.00
6:54 am 06:54 Sunny 58 14.4 55 12.8 90 90 Calm 30.14 1021 10 16 0.00 0.00
7:54 am 07:54 Sunny 63 17.2 57 13.9 81 81 NE 5 7 30.15 1021 10 16 0.00 0.00
8:54 am 08:54 Sunny 68 20 58 14.4 70 70 E 7 11 30.16 1021 10 16 0.00 0.00
9:54 am 09:54 Sunny 73 22.8 58 14.4 59 59 ENE 8 13 30.15 1021 10 16 0.00 0.00
10:54 am 10:54 Sunny 77 25 56 13.3 48 48 E 10 17 30.14 1021 10 16 0.00 0.00
11:54 am 11:54 Sunny 79 26.1 56 13.3 45 45 E 7 11 30.15 1021 10 16 0.00 0.00
12:54 pm 12:54 Sunny 80 26.7 55 12.8 42 42 NNE 8 13 30.14 1021 10 16 0.00 0.00
1:54 pm 13:54 Sunny 80 26.7 54 12.2 41 41 VRB 3 6 30.12 1020 10 16 0.00 0.00
2:54 pm 14:54 Sunny 82 27.8 52 11.1 35 35 ENE 5 7 30.10 1019 10 16 0.00 0.00
3:54 pm 15:54 Sunny 83 28.3 54 12.2 37 37 E 6 9 30.08 1019 10 16 0.00 0.00
4:54 pm 16:54 Sunny 84 28.9 53 11.7 35 35 NNE 7 11 30.07 1018 10 16 0.00 0.00
5:54 pm 17:54 Sunny 83 28.3 53 11.7 36 36 Calm 30.05 1018 10 16 0.00 0.00
6:54 pm 18:54 Sunny 78 25.6 59 15 52 52 WSW 3 6 30.03 1017 10 16 0.00 0.00
7:54 pm 19:54 Sunny 76 24.4 60 15.6 58 58 Calm 30.03 1017 10 16 0.00 0.00
8:54 pm 20:54 Clear 74 23.3 60 15.6 62 62 Calm 30.04 1017 10 16 0.00 0.00
9:54 pm 21:54 Clear 73 22.8 61 16.1 66 66 Calm 30.03 1017 10 16 0.00 0.00
10:54 pm 22:54 Clear 68 20 62 16.7 81 81 Calm 30.04 1017 10 16 0.00 0.00
11:54 pm 23:54 Clear 69 20.6 63 17.2 81 81 Calm 30.05 1018 10 16 0.00 0.00

Powered by AerisWeather